Regional Weather Roundup
Issued by NWS Green Bay, WI

Home | Current Version | Previous Version | Graphics & Text | Print | Product List | Glossary Off
Versions: 1 2 3 4 5 6 7 8 9 10 11 12 13 14 15 16 17 18 19 20 21 22 23 24 25 26 27 28 29 30 31 32 33 34 35 36 37 38 39 40 41 42 43 44 45 46 47 48 49 50

000
ASUS43 KGRB 311910
RWRGRB

NORTH-CENTRAL AND NORTHEAST WISCONSIN REGIONAL WEATHER ROUNDUP
NATIONAL WEATHER SERVICE GREEN BAY WI
100 PM CST SAT JAN 31 2015

WIZ005-009-010>012-018-019-312000-
NORTH CENTRAL WISCONSIN

CITY           SKY/WX    TMP DP  RH WIND       PRES   REMARKS
IRONWOOD       CLOUDY    18  12  79 N12       30.18S WCI   5
MANITOWISH WTR LGT SNOW  20  14  77 N9        30.13F WCI   9
ARBOR VITAE    FLURRIES  23  16  74 N12       30.13F
EAGLE RIVER    FLURRIES  22  13  69 NW13G18   30.11F WCI  10
LAND O LAKES   LGT SNOW  21  15  77 N10G16    30.13S WCI  10
RHINELANDER    CLOUDY    22  16  78 NW8       30.13S
PHILLIPS       CLOUDY    22  15  75 N9G18     30.14S
ANTIGO         CLOUDY    24  18  79 N12       30.12S
TOMAHAWK       CLOUDY    24  17  75 N3        30.14S
MERRILL        CLOUDY    25  18  74 N10       30.13F
$$

WIZ013-073-312000-
NORTHEAST WISCONSIN

CITY           SKY/WX    TMP DP  RH WIND       PRES   REMARKS
IRON MOUNTAIN  CLOUDY    25  16  68 NW14      30.12S
MARINETTE      CLOUDY    27  18  69 N6        30.15F
OCONTO         CLOUDY    28  19  66 MISG      30.16F
$$

WIZ017-030-035>037-045-312000-
CENTRAL WISCONSIN

CITY           SKY/WX    TMP DP  RH WIND       PRES   REMARKS
MEDFORD        CLOUDY    26  18  74 N9        30.12F
WAUSAU         CLOUDY    26  18  71 N7        30.13F
MOSINEE        CLOUDY    27  21  80 N7        30.14F
MARSHFIELD     CLOUDY    28  19  69 N7        30.14F
WISC RAPIDS    CLOUDY    27  18  69 N6        30.16F
STEVENS POINT  CLOUDY    25  18  73 CALM      30.15F
WAUPACA        CLOUDY    30  19  64 NW3       30.16F
SHAWANO        CLOUDY    32  20  62 N5        30.14F
CLINTONVILLE   CLOUDY    28  19  69 CALM      30.15F
$$

WIZ038-039-048-051-312000-
FOX VALLEY

CITY           SKY/WX    TMP DP  RH WIND       PRES   REMARKS
NWS GREEN BAY  CLOUDY    27  18  69 W5        30.17S
APPLETON       CLOUDY    27  18  69 N3        30.16F
OSHKOSH        CLOUDY    28  19  69 NW7       30.16F
FOND DU LAC    CLOUDY    30  19  63 N6        30.16F
$$

WIZ022-050-052-312000-
EAST CENTRAL WISCONSIN

CITY           SKY/WX    TMP DP  RH WIND       PRES   REMARKS
STURGEON BAY   CLOUDY    25  16  68 NW6       30.18S
MANITOWOC      CLOUDY    29  20  69 NW6       30.17S
SHEBOYGAN      CLOUDY    30  19  63 NW7       30.16S
$$

LMZ563-521-522-541>543-312000-
LAKESHORE

STATION/POSITION TIME  TEMP    WIND        PRES    VSBY  WAVE
                       AIR SEA DIR/SP/G                  HT/PER
                 (UTC) (F)     (DEG/KT/KT) (MB)    (MI)  (FT/S)
SHEBOYGAN LKSHOR 1900   30     330/  8/  9 1022.6F
KEWAUNEE LKSHORE 1900   27     320/  2/  7 1020.6S
NORTHPORT PIER   1900   26     310/  6/ 10 1021.3R
SISTER BAY LKSHO 1900   29        CALM       N/A
CHAMBERS ISLAND  1900   28     300/  5/  9 1021.3S
MENOMINEE LKSHOR 1900   27     320/ 12     1021.8F
$$


USA.gov is the U.S. government's official web portal to all federal, state and local government web resources and services.